Big Piney, WY

2:28 AM MST on February 25, 2017 (GMT -0700)
Big Piney-Marbleton

Weather History for KBPI - May, 2013

Change the Weather History Date:

Monday, May 27, 2013

  Actual Average Record
Temperature  
Mean Temperature 50 °F 49 °F  
Max Temperature 64 °F 65 °F 82 °F (2003)
Min Temperature 36 °F 33 °F 25 °F (2011)
Degree Days  
Heating Degree Days 15 16  
Month to date heating degree days 434 535  
Since 1 July heating degree days 9341 10066  
Cooling Degree Days 0 0  
Month to date cooling degree days 0 0  
Year to date cooling degree days 0 0  
Moisture  
Dew Point 25 °F    
Average Humidity 46    
Maximum Humidity 76    
Minimum Humidity 16    
Precipitation  
Precipitation 0.00 in 0.03 in 0.23 in (1987)
Month to date precipitation 0.79 0.73  
Year to date precipitation 1.23 2.36  
Sea Level Pressure  
Sea Level Pressure 29.76 in    
Wind  
Wind Speed 10 mph (WNW)    
Max Wind Speed 24 mph    
Max Gust Speed 31 mph    
Visibility 10 miles    
Events      
T = Trace of Precipitation, MM = Missing Value Source: NWS Daily Summary

Daily Weather History Graph

Daily Weather History Graph

Search for Another Location

Airport or City:

Trip Planner

Search our weather history database for the weather conditions in past years. The results will help you decide how hot, cold, wet, or windy it might be!

Date:

Astronomy

May. 27, 2013 Rise Set
Actual Time 5:48 AM MDT 8:47 PM MDT
Civil Twilight 5:14 AM MDT 9:21 PM MDT
Nautical Twilight 4:31 AM MDT 10:04 PM MDT
Astronomical Twilight 3:41 AM MDT 10:55 PM MDT
Moon 11:27 PM MDT (5/27) 8:30 AM MDT (5/27)
Length of Visible Light 16h 06m
Length of Day
14h 59m
Waning Gibbous, 90% of the Moon is Illuminated
May 27
Waning Gibbous
May 31
Last Quarter
Jun 8
New
Jun 16
First Quarter
Jun 23
Full

Hourly Weather History & Observations

Time (MDT) Temp. Windchill Dew Point Humidity Pressure Visibility Wind Dir Wind Speed Gust Speed Precip Events Conditions
12:53 AM 46.0 °F 43.1 °F 28.9 °F 51% 29.75 in 10.0 mi NNW 5.8 mph - N/A   Partly Cloudy
1:53 AM 46.9 °F - 26.1 °F 44% 29.75 in 10.0 mi NNW 9.2 mph - N/A   Mostly Cloudy
2:53 AM 51.1 °F - 32.0 °F 48% 29.76 in 10.0 mi North 9.2 mph - N/A   Overcast
3:53 AM 48.0 °F - 33.1 °F 56% 29.78 in 10.0 mi North 12.7 mph - N/A   Overcast
4:53 AM 43.0 °F 38.2 °F 33.1 °F 68% 29.80 in 10.0 mi NNE 8.1 mph - N/A   Clear
5:53 AM 37.0 °F 31.6 °F 30.9 °F 79% 29.81 in 10.0 mi NNW 6.9 mph - N/A   Clear
6:53 AM 41.0 °F 38.0 °F 34.0 °F 76% 29.82 in 10.0 mi NW 4.6 mph - N/A   Clear
7:53 AM 48.9 °F - 36.0 °F 61% 29.79 in 10.0 mi NW 4.6 mph - N/A   Clear
8:53 AM 52.0 °F - 34.0 °F 50% 29.81 in 10.0 mi Calm Calm - N/A   Clear
9:53 AM 57.0 °F - 27.0 °F 32% 29.78 in 10.0 mi West 15.0 mph 20.7 mph N/A   Partly Cloudy
10:53 AM 59.0 °F - 19.0 °F 21% 29.77 in 10.0 mi WNW 15.0 mph - N/A   Partly Cloudy
11:53 AM 61.0 °F - 19.9 °F 21% 29.78 in 10.0 mi WSW 13.8 mph 21.9 mph N/A   Clear
12:53 PM 63.0 °F - 17.1 °F 17% 29.78 in 10.0 mi West 19.6 mph 31.1 mph N/A   Clear
1:53 PM 63.0 °F - 19.9 °F 19% 29.76 in 10.0 mi SW 15.0 mph 26.5 mph N/A   Clear
2:53 PM 62.1 °F - 19.0 °F 19% 29.73 in 10.0 mi West 10.4 mph 23.0 mph N/A   Clear
3:53 PM 64.0 °F - 17.1 °F 16% 29.73 in 10.0 mi West 15.0 mph 19.6 mph N/A   Clear
4:53 PM 63.0 °F - 17.1 °F 17% 29.74 in 10.0 mi West 18.4 mph - N/A   Clear
5:53 PM 63.0 °F - 17.1 °F 17% 29.75 in 10.0 mi West 13.8 mph 18.4 mph N/A   Clear
6:53 PM 57.9 °F - 21.0 °F 24% 29.75 in 10.0 mi West 12.7 mph - N/A   Clear
7:53 PM 57.9 °F - 23.0 °F 26% 29.72 in 10.0 mi West 10.4 mph - N/A   Clear
8:53 PM 52.0 °F - 24.1 °F 34% 29.75 in 10.0 mi West 9.2 mph - N/A   Clear
9:53 PM 50.0 °F - 24.1 °F 36% 29.74 in 10.0 mi NNW 6.9 mph - N/A   Scattered Clouds
10:53 PM 51.1 °F - 25.0 °F 36% 29.73 in 10.0 mi North 4.6 mph - N/A   Overcast
11:53 PM 48.9 °F - 25.0 °F 39% 29.74 in 10.0 mi North 5.8 mph - N/A   Overcast